AirNav   Everest Fuels
 
 785 users online  

01MO Highway Patrol Troop C Headquarters Heliport
Town And Country, Missouri, USA

GOING TO TOWN AND COUNTRY?


FAA INFORMATION EFFECTIVE 02 JANUARY 2020

Location

FAA Identifier: 01MO
Lat/Long: 38-38-30.1890N 090-29-03.4330W
38-38.503150N 090-29.057217W
38.6417192,-90.4842869
(estimated)
Elevation: 575 ft. / 175 m (estimated)
Variation: 02E (1985)
From city: 2 miles W of TOWN AND COUNTRY, MO
Time zone: UTC -6 (UTC -5 during Daylight Saving Time)
Zip code: 63141

Heliport Operations

Heliport use: Private use. Permission required prior to landing
Control tower: no
ARTCC: KANSAS CITY CENTER
FSS: SAINT LOUIS FLIGHT SERVICE STATION
Attendance: CONTINUOUS
Wind indicator: yes
Segmented circle: no

Heliport Communications

UNICOM: 122.95
WX ASOS at SUS (8 nm W): 134.8 (314-890-7255)
WX ASOS at STL (8 nm NE): 125.025 (314-890-4790)
WX ASOS at CPS (16 nm E): PHONE 618-332-0001
WX ASOS at SET (17 nm N): 118.075 (636-250-4590)

Nearby radio navigation aids

VOR radial/distance  VOR name  Freq  Var
STLr179/13.1ST LOUIS VORTAC117.4001E
FTZr093/23.0FORISTELL VORTAC110.8005E
TOYr254/27.1TROY VORTAC116.0004E

 
NDB name  Hdg/Dist  Freq  Var  ID
EAVES127/3.622701WFZ ..-. --..
OBLIO184/9.533801WLM .-.. --
ZUMAY229/13.040401WST ... -
SNOOP090/13.232601WSU ... ..-
CIVIC MEMORIAL234/25.026301WCVM -.-. ...- --

Heliport Services

Airframe service: NONE
Powerplant service: NONE

Runway Information

Helipad H1

Dimensions: 75 x 75 ft. / 23 x 23 m
Surface: concrete
Latitude: 38-38.503167N
Longitude: 090-29.057167W
Elevation: 575.0 ft.
Traffic pattern: leftleft

Heliport Ownership and Management from official FAA records

Ownership: Privately-owned
Owner: CPT D E BUSCHMANN
599 SOUTH MASON ROAD
ST LOUIS, MO 63141
Phone 573-434-5500
Manager: SGT J W RHODUS
599 SOUTH MASON ROAD
ST LOUIS, MO 63141
Phone 573-340-4034

Heliport Operational Statistics

Aircraft based on the field: 1
Helicopters: 1
    

Additional Remarks

A52-H1 LGTD/MARKED-300' TWR & PATROL BLDG. SE OF PAD.
FOR CD CTC ST LOUIS APCH AT 314-890-1018.

Instrument Procedures

There are no published instrument procedures at 01MO.

Some nearby airports with instrument procedures:

1H0 - Creve Coeur Airport (5 nm N)
KSUS - Spirit of St Louis Airport (8 nm W)
KSTL - St Louis Lambert International Airport (8 nm NE)
KCPS - St Louis Downtown Airport (16 nm E)
KSET - St Charles County Smartt Airport (17 nm N)
 
Loc | Ops | Rwys | IFR | FBO | Links
Com | Nav | Svcs | Stats | Notes

Kansas City Aviation Department
 
Area around 01MO (Highway Patrol Troop C Headquarters Heliport)
 
Road maps at: MapQuest Bing Google
 
Aerial photo
No photo
 
Sectional chart

 
Airport distance calculator
Flying to Highway Patrol Troop C Headquarters Heliport? Find the distance to fly.

From to 01MO

Sunrise and sunset
Times for 24-Jan-2020
 Local
(UTC-6)
 Zulu
(UTC)
Morning civil twilight06:4612:46
Sunrise07:1513:15
Sunset17:1323:13
Evening civil twilight17:4223:42

Current date and time
Zulu (UTC)  24-Jan-2020 06:51:59
Local (UTC-6)  24-Jan-2020 00:51:59
 
METAR
KSUS 
8nm W 
240637Z AUTO 00000KT 2 1/2SM BR BKN006 OVC011 01/00 A2983 RMK AO2 T00060000
KSTL 
9nm NE 
240606Z 17003KT 3SM -SN BR OVC004 01/00 A2984 RMK AO2 P0000 T00110000
KCPS 
16nm E 
240609Z AUTO 00000KT 6SM BR BKN004 OVC036 01/M01 A2984 RMK AO2 T00061006
KSET 
18nm N 
240617Z AUTO 08003KT 2 1/2SM BR OVC004 01/00 A2983 RMK AO2 T00060000 $
TAF
KSUS 
8nm W 
240520Z 2406/2506 00000KT 3SM -SN BR OVC004 FM241600 28006KT 3SM -SNRA BR OVC007 FM250000 28010KT 6SM -SN BR OVC009
KSTL 
9nm NE 
240520Z 2406/2512 VRB03KT 3SM -SN BR OVC004 FM241600 28008KT 3SM -SNRA BR OVC007 FM250000 28010KT 6SM -SN BR OVC009
KCPS 
16nm E 
240520Z 2406/2506 VRB03KT 3SM -SN BR OVC004 FM241600 27006KT 4SM -SNRA BR OVC007 FM250000 28010KT 6SM -SN BR OVC009
NOTAMs
Click for the latest NOTAMs
NOTAMs are issued by the DoD/FAA and will open in a separate window not controlled by AirNav.

 

 
 

Would you like to see your business listed on this page?

 If your business provides an interesting product or service to pilots, flight crews, aircraft, or users of the Highway Patrol Troop C Headquarters Heliport, you should consider listing it here.  To start the listing process, click on the button below
 
Add a business
 

Other Pages about Highway Patrol Troop C Headquarters Heliport

Update a link
 
Copyright © AirNav, LLC. All rights reserved. Privacy Policy  Contact